Weather History for Port Angeles, WA

Change the Weather History Date:

Monday, September 16, 2013

  Actual Average Record
Temperature  
Mean Temperature 60 °F -  
Max Temperature 64 °F 65 °F 79 °F (1979)
Min Temperature 55 °F 49 °F 34 °F (1965)
Degree Days  
Heating Degree Days 6    
Growing Degree Days 10 (Base 50)    
Moisture  
Dew Point 55 °F    
Average Humidity 88    
Maximum Humidity 100    
Minimum Humidity 67    
Precipitation  
Precipitation 0.03 in - - ()
Sea Level Pressure  
Sea Level Pressure 29.88 in    
Wind  
Wind Speed 6 mph (WNW)    
Max Wind Speed 14 mph    
Max Gust Speed -    
Visibility 8 miles    
Events Rain    
Averages and records for this station are not official NWS values.
T = Trace of Precipitation, MM = Missing Value Source: NWS Daily Summary

Daily Weather History Graph

Daily Weather History Graph

Search for Another Location

Airport:

Trip Planner

Search our weather history database for the weather conditions in past years. The results will help you decide how hot, cold, wet, or windy it might be!

Date:

Astronomy

Sep. 16, 2013 Rise Set
Actual Time 6:52 AM PDT 7:23 PM PDT
Civil Twilight 6:21 AM PDT 7:54 PM PDT
Nautical Twilight 5:44 AM PDT 8:31 PM PDT
Astronomical Twilight 5:05 AM PDT 9:10 PM PDT
Moon 5:44 PM PDT (9/16) 3:34 AM PDT (9/16)
Length of Visible Light 13h 33m
Length of Day
12h 30m
Waxing Gibbous, 91% of the Moon is Illuminated
Sep 16
Waxing Gibbous
Sep 19
Full
Sep 26
Last Quarter
Oct 4
New
Oct 11
First Quarter

Hourly Weather History & Observations

Time (PDT) Temp. Dew Point Humidity Pressure Visibility Wind Dir Wind Speed Gust Speed Precip Events Conditions
12:53 AM 59.0 °F 57.0 °F 93% 29.80 in 8.0 mi WNW 5.8 mph - 0.02 in   Overcast
1:53 AM 59.0 °F 57.0 °F 93% 29.81 in 10.0 mi West 6.9 mph - N/A   Overcast
2:53 AM 59.0 °F 57.0 °F 93% 29.81 in 10.0 mi West 8.1 mph - N/A   Overcast
3:10 AM 59.0 °F 57.0 °F 93% 29.81 in 10.0 mi West 5.8 mph - N/A   Overcast
3:35 AM 57.9 °F 55.9 °F 93% 29.81 in 10.0 mi WNW 9.2 mph - N/A   Overcast
3:46 AM 57.9 °F 55.9 °F 93% 29.81 in 10.0 mi WNW 10.4 mph - N/A   Mostly Cloudy
3:53 AM 57.9 °F 55.9 °F 93% 29.82 in 10.0 mi NW 10.4 mph - N/A   Mostly Cloudy
4:02 AM 59.0 °F 55.9 °F 90% 29.82 in 10.0 mi WNW 9.2 mph - N/A   Mostly Cloudy
4:53 AM 57.9 °F 55.9 °F 93% 29.83 in 10.0 mi WNW 5.8 mph - N/A   Overcast
5:28 AM 57.9 °F 55.9 °F 93% 29.83 in 10.0 mi Calm Calm - N/A   Overcast
5:53 AM 57.9 °F 55.9 °F 93% 29.83 in 10.0 mi South 3.5 mph - N/A   Overcast
6:33 AM 55.9 °F 55.0 °F 97% 29.83 in 1.5 mi Calm Calm - N/A   Overcast
6:45 AM 57.0 °F 55.0 °F 93% 29.84 in 3.0 mi WNW 3.5 mph - N/A   Overcast
6:51 AM 55.4 °F 55.4 °F 100% 29.84 in 2.5 mi Calm Calm - N/A   Overcast
6:53 AM 55.9 °F 55.0 °F 97% 29.84 in 1.8 mi NNE 3.5 mph - N/A   Overcast
7:03 AM 57.0 °F 55.9 °F 96% 29.84 in 2.5 mi North 4.6 mph - N/A   Overcast
7:10 AM 57.0 °F 55.9 °F 96% 29.85 in 6.0 mi NW 3.5 mph - N/A   Overcast
7:17 AM 57.0 °F 55.9 °F 96% 29.85 in 4.0 mi Calm Calm - N/A   Overcast
7:37 AM 57.9 °F 57.0 °F 97% 29.86 in 9.0 mi Calm Calm - N/A   Overcast
7:53 AM 57.9 °F 57.0 °F 97% 29.87 in 10.0 mi Calm Calm - N/A   Overcast
8:29 AM 59.0 °F 57.0 °F 93% 29.87 in 10.0 mi Calm Calm - N/A   Overcast
8:53 AM 59.0 °F 57.9 °F 96% 29.88 in 8.0 mi Calm Calm - N/A   Overcast
9:36 AM 59.0 °F 57.0 °F 93% 29.90 in 7.0 mi NNW 4.6 mph - 0.00 in   Overcast
9:42 AM 57.9 °F 55.9 °F 93% 29.90 in 2.5 mi North 3.5 mph - 0.00 in Rain Light Rain
9:53 AM 57.9 °F 55.9 °F 93% 29.90 in 3.0 mi Variable 3.5 mph - 0.00 in Rain Light Rain
10:13 AM 57.9 °F 57.0 °F 97% 29.90 in 2.5 mi WNW 3.5 mph - 0.01 in   Overcast
10:21 AM 59.0 °F 57.0 °F 93% 29.90 in 3.0 mi Calm Calm - 0.01 in   Overcast
10:28 AM 59.0 °F 57.0 °F 93% 29.90 in 2.5 mi WSW 3.5 mph - 0.01 in   Overcast
10:38 AM 60.1 °F 57.9 °F 93% 29.90 in 5.0 mi WSW 3.5 mph - 0.01 in   Overcast
10:50 AM 60.8 °F 57.2 °F 88% 29.90 in 10.0 mi West 6.9 mph - 0.01 in   Overcast
10:53 AM 60.1 °F 57.9 °F 93% 29.90 in 10.0 mi West 6.9 mph - 0.01 in   Overcast
11:27 AM 62.1 °F 59.0 °F 90% 29.90 in 10.0 mi West 8.1 mph - N/A   Overcast
11:53 AM 63.0 °F 59.0 °F 87% 29.91 in 10.0 mi West 10.4 mph - N/A   Overcast
12:20 PM 64.0 °F 59.0 °F 84% 29.92 in 10.0 mi WNW 6.9 mph - N/A   Overcast
12:53 PM 62.1 °F 57.0 °F 84% 29.93 in 10.0 mi NW 9.2 mph - N/A   Overcast
1:23 PM 60.1 °F 55.9 °F 86% 29.93 in 10.0 mi NW 9.2 mph - N/A   Overcast
1:30 PM 60.1 °F 55.9 °F 86% 29.93 in 10.0 mi WNW 11.5 mph - N/A   Overcast
1:53 PM 62.1 °F 57.0 °F 84% 29.93 in 10.0 mi West 8.1 mph - N/A   Overcast
2:09 PM 62.1 °F 57.0 °F 84% 29.93 in 10.0 mi WNW 12.7 mph - N/A   Overcast
2:53 PM 61.0 °F 55.9 °F 83% 29.93 in 10.0 mi WNW 12.7 mph - N/A   Overcast
3:53 PM 62.1 °F 54.0 °F 75% 29.93 in 10.0 mi WNW 13.8 mph - N/A   Overcast
4:53 PM 61.0 °F 52.0 °F 72% 29.93 in 10.0 mi West 12.7 mph - N/A   Overcast
5:53 PM 60.1 °F 50.0 °F 69% 29.93 in 10.0 mi WNW 12.7 mph - N/A   Overcast
6:53 PM 60.1 °F 50.0 °F 69% 29.93 in 10.0 mi WNW 13.8 mph - N/A   Overcast
7:53 PM 59.0 °F 48.9 °F 69% 29.93 in 10.0 mi NW 5.8 mph - N/A   Overcast
8:53 PM 59.0 °F 48.9 °F 69% 29.94 in 10.0 mi WNW 9.2 mph - N/A   Overcast
9:53 PM 59.0 °F 48.0 °F 67% 29.93 in 10.0 mi WNW 8.1 mph - N/A   Overcast
10:53 PM 57.0 °F 48.9 °F 74% 29.93 in 10.0 mi WSW 4.6 mph - N/A   Overcast
11:53 PM 55.9 °F 51.1 °F 84% 29.94 in 10.0 mi West 4.6 mph - N/A   Overcast